Location: Drouwen
(52.9559°N, 6.7974°E)
Time: 10:27:49
(UTC+00:00)

GP-B - Pass Details

Date: 15 May 2026
Orbit: 617 x 621 km, 89.9° (Epoch: 6 June)

Event Time Altitude Azimuth Distance (km) Brightness Sun altitude
Rises 22:28:06 0° 7° (N) 2,908 7.8 -16.8°
Reaches altitude 10° 22:30:30 10° 17° (NNE) 1,997 6.6 -16.9°
Maximum altitude 22:34:31 34° 83° (E) 1,022 4.1 -17.0°
Enters shadow 22:36:13 25° 126° (SE) 1,256 4.2 -17.1°
